[Date Prev][Date Next][Thread Prev][Thread Next] - [Date Index][Thread Index][Author Index]
2 Line ISS Keps 1-14
- Subject: [sarex] 2 Line ISS Keps 1-14
- From: "Dave Larsen PhD" <doc@xxxxxxxxxxx>
- Date: Wed, 14 Jan 2004 01:43:36 -0800
ISS
1 25544U 98067A 04014.19561571 .00015919 00000-0 15886-3 0 126
2 25544 51.6292 34.4652 0007909 46.9885 41.8936 15.65793739294007
----
Via the sarex mailing list at AMSAT.ORG courtesy of AMSAT-NA.
To unsubscribe, send "unsubscribe sarex" to Majordomo@amsat.org
AMSAT Home